FW8226 Weather Reports


time (UTC)temp
F
wind
direction
speed
knots
gust
knots
rain 1hr
in
rain 24hr
in
rain mn
in
humidity
%
barometer
mb
20260906210349 84 167 5.2 6.1 0.00 0.01 0.01 57 1014.1
20260906205844 83 134 4.3 5.2 0.00 0.01 0.01 59 1014.0
20260906205340 82 168 5.2 7.0 0.00 0.01 0.01 61 1014.1
20260906204836 82 169 7.8 8.7 0.00 0.01 0.01 58 1014.2
20260906204334 82 143 7.8 8.7 0.00 0.01 0.01 60 1014.3
20260906203834 82 157 7.0 8.7 0.00 0.01 0.01 58 1014.5
20260906203329 82 137 7.0 7.8 0.00 0.01 0.01 60 1014.5
20260906202826 82 153 8.7 9.6 0.00 0.01 0.01 59 1014.4
20260906202326 82 155 7.0 7.8 0.00 0.01 0.01 60 1014.6
20260906201821 81 132 3.5 4.3 0.00 0.01 0.01 62 1014.7
20260906201320 80 147 7.0 7.8 0.00 0.01 0.01 64 1014.9
20260906200816 80 183 4.3 5.2 0.00 0.01 0.01 63 1014.6
20260906200312 81 162 6.1 7.0 0.00 0.01 0.01 64 1014.9
20260906195807 81 180 2.6 4.3 0.00 0.01 0.01 65 1014.6
20260906195306 81 92 5.2 6.1 0.00 0.01 0.01 64 1014.6
20260906194759 80 126 4.3 5.2 0.00 0.01 0.01 66 1014.9
20260906194254 78 153 4.3 5.2 0.00 0.01 0.01 65 1014.7
20260906193749 80 163 7.0 8.7 0.00 0.01 0.01 66 1014.7
20260906193243 79 158 5.2 7.8 0.00 0.01 0.01 68 1014.9
20260906192740 79 184 7.8 12.2 0.00 0.01 0.01 64 1014.7
20260906192234 79 177 3.5 4.3 0.00 0.01 0.01 66 1015.0
20260906191733 79 176 7.0 7.8 0.00 0.01 0.01 67 1015.2
20260906191228 78 184 3.5 4.3 0.00 0.01 0.01 66 1015.3
20260906190722 79 155 6.1 7.8 0.00 0.01 0.01 64 1015.2
20260906190216 78 194 5.2 6.1 0.00 0.01 0.01 67 1015.2
20260906185716 78 184 6.1 7.8 0.00 0.01 0.01 66 1015.1
20260906185215 77 164 6.1 7.0 0.00 0.01 0.01 67 1015.1
20260906184709 78 173 7.0 7.0 0.00 0.01 0.01 65 1015.2
20260906184205 78 168 7.8 8.7 0.00 0.01 0.01 67 1015.5
20260906183701 78 163 5.2 5.2 0.00 0.01 0.01 69 1015.5
20260906183157 77 138 4.3 5.2 0.00 0.01 0.01 70 1015.5
20260906182656 77 137 2.6 4.3 0.00 0.01 0.01 68 1015.7
20260906182153 77 199 7.0 7.8 0.00 0.01 0.01 66 1015.7
20260906181648 76 196 4.3 6.1 0.00 0.01 0.01 70 1015.8
20260906181144 76 182 7.8 8.7 0.00 0.01 0.01 72 1015.9
20260906180638 76 182 7.8 9.6 0.00 0.01 0.01 72 1016.0
20260906180133 76 179 9.6 12.2 0.00 0.01 0.01 69 1015.9
20260906175631 75 149 7.0 7.8 0.00 0.01 0.01 72 1016.2
20260906175126 75 194 7.8 8.7 0.00 0.01 0.01 71 1016.0
20260906174624 75 163 7.8 7.8 0.00 0.01 0.01 74 1016.1
20260906174120 75 152 7.8 8.7 0.00 0.01 0.01 74 1016.1
20260906173615 74 174 8.7 11.3 0.00 0.01 0.01 76 1016.3
20260906173110 74 172 10.4 12.2 0.00 0.01 0.01 73 1016.1
20260906172610 74 176 11.3 14.8 0.00 0.01 0.01 74 1016.3
20260906172106 74 171 8.7 9.6 0.00 0.01 0.01 74 1016.3
20260906171605 74 148 9.6 13.0 0.00 0.01 0.01 75 1016.6
20260906171101 73 182 7.0 7.8 0.00 0.01 0.01 78 1016.3
20260906170556 73 180 11.3 13.0 0.00 0.01 0.01 75 1016.2
20260906170055 73 156 11.3 13.0 0.00 0.01 0.01 76 1016.2
20260906165552 73 150 7.8 8.7 0.00 0.01 0.01 76 1016.1
20260906165047 73 175 9.6 12.2 0.00 0.01 0.01 76 1016.3
20260906164546 72 180 11.3 12.2 0.00 0.01 0.01 76 1016.1
20260906164042 72 185 7.8 9.6 0.00 0.01 0.01 79 1016.3
20260906163537 72 157 8.7 9.6 0.00 0.01 0.01 77 1016.5
20260906163033 71 161 8.7 11.3 0.00 0.01 0.01 77 1016.5
20260906162530 72 158 6.1 7.0 0.00 0.01 0.01 77 1016.3
20260906162025 71 185 6.1 7.0 0.00 0.01 0.01 79 1016.3
20260906161520 71 170 7.8 9.6 0.00 0.01 0.01 77 1016.3
20260906161019 71 170 8.7 9.6 0.00 0.01 0.01 77 1016.3
20260906160518 71 167 7.8 8.7 0.00 0.01 0.01 76 1016.3
20260906160017 71 161 4.3 7.0 0.00 0.01 0.01 77 1016.3
20260906155514 70 189 5.2 7.0 0.00 0.01 0.01 78 1016.5
20260906155011 70 208 4.3 7.0 0.00 0.01 0.01 78 1016.6
20260906154506 69 182 3.5 4.3 0.00 0.01 0.01 79 1016.2
20260906154004 69 212 5.2 6.1 0.00 0.01 0.01 80 1016.3
20260906153503 69 180 3.5 4.3 0.00 0.01 0.01 79 1016.3
20260906152959 69 172 7.0 7.0 0.00 0.01 0.01 79 1016.6
20260906152453 68 178 4.3 5.2 0.00 0.01 0.01 79 1016.3
20260906151953 68 173 7.0 8.7 0.00 0.01 0.01 80 1016.5
20260906151448 67 199 4.3 5.2 0.00 0.01 0.01 82 1016.5
20260906150943 67 211 4.3 5.2 0.00 0.01 0.01 84 1016.2
20260906150438 67 173 6.1 7.0 0.00 0.01 0.01 83 1016.3
20260906145932 66 187 7.0 7.8 0.00 0.01 0.01 82 1016.6
20260906145432 66 170 6.1 6.1 0.00 0.01 0.01 84 1016.3
20260906144926 65 175 2.6 2.6 0.00 0.01 0.01 84 1016.6
20260906144421 65 205 1.7 1.7 0.00 0.01 0.01 85 1016.5
20260906143917 64 198 0.0 0.0 0.00 0.01 0.01 87 1016.5
20260906143412 64 210 0.9 0.9 0.00 0.01 0.01 86 1016.2
20260906142908 64 322 0.0 0.0 0.00 0.01 0.01 87 1016.5
20260906142407 64 305 1.7 1.7 0.00 0.01 0.01 87 1016.6
20260906141902 64 271 0.0 0.0 0.00 0.01 0.01 87 1016.7
20260906141402 64 273 0.0 0.9 0.00 0.01 0.01 88 1016.9
20260906140856 64 178 0.0 0.9 0.00 0.01 0.01 88 1016.8
20260906140351 64 155 0.9 0.9 0.00 0.01 0.01 89 1016.8
20260906135849 64 164 1.7 1.7 0.00 0.01 0.01 88 1016.9
20260906135343 64 161 1.7 1.7 0.00 0.01 0.01 88 1016.6
20260906134838 63 125 1.7 1.7 0.00 0.01 0.01 89 1016.6
20260906134333 63 138 0.0 0.9 0.00 0.01 0.01 90 1016.5
20260906133829 64 137 0.9 1.7 0.00 0.01 0.01 89 1016.5
20260906133324 63 23 0.0 0.9 0.00 0.01 0.01 92 1016.7
20260906132820 62 39 0.0 0.9 0.00 0.01 0.01 92 1016.2
20260906132315 62 46 0.0 0.9 0.00 0.01 0.01 92 1016.2
20260906131810 62 53 0.0 0.0 0.00 0.01 0.01 91 1016.0
20260906131306 63 57 0.0 0.0 0.00 0.01 0.01 90 1016.5
20260906130801 63 72 0.0 0.0 0.00 0.01 0.01 89 1016.3
20260906130256 63 77 2.6 2.6 0.00 0.01 0.01 87 1016.3
20260906125754 63 70 1.7 1.7 0.00 0.01 0.01 88 1016.5
20260906125253 63 103 1.7 1.7 0.00 0.01 0.01 88 1016.1
20260906124753 62 138 4.3 5.2 0.00 0.01 0.01 90 1015.9
20260906124249 62 143 3.5 4.3 0.00 0.01 0.01 89 1016.0
20260906123747 62 140 2.6 2.6 0.00 0.01 0.01 89 1015.7
20260906123243 62 106 0.9 0.9 0.00 0.01 0.01 90 1015.9
20260906122742 62 93 0.0 0.0 0.00 0.01 0.01 89 1016.2
20260906122237 62 115 2.6 2.6 0.00 0.01 0.01 90 1015.8
20260906121734 62 115 0.0 0.0 0.00 0.01 0.01 91 1015.9
20260906121230 62 118 0.0 0.0 0.00 0.01 0.01 89 1015.9
20260906120725 62 109 0.0 0.0 0.00 0.01 0.01 91 1015.9
20260906120222 62 71 0.0 0.0 0.00 0.01 0.01 91 1015.7
20260906115718 62 71 0.0 0.0 0.00 0.01 0.01 91 1015.7
20260906115213 62 301 0.9 0.9 0.00 0.01 0.01 91 1015.8
20260906114711 62 251 1.7 1.7 0.00 0.01 0.01 89 1015.7
20260906114207 62 143 0.9 0.9 0.00 0.01 0.01 89 1015.8
20260906113702 62 127 3.5 4.3 0.00 0.01 0.01 88 1015.5
20260906113201 62 175 3.5 4.3 0.00 0.01 0.01 88 1015.7
20260906112701 62 155 2.6 4.3 0.00 0.01 0.01 88 1015.7
20260906112158 63 162 2.6 2.6 0.00 0.01 0.01 88 1015.9
20260906111657 63 211 1.7 1.7 0.00 0.01 0.01 86 1016.0
20260906111152 63 75 3.5 4.3 0.00 0.01 0.01 86 1015.3
20260906110647 63 226 0.9 1.7 0.00 0.01 0.01 86 1015.7
20260906110142 63 69 0.0 0.9 0.05 0.01 0.01 86 1015.7
20260906105636 63 56 2.6 2.6 0.05 0.01 0.01 85 1015.1
20260906105133 62 7 0.0 0.0 0.00 0.00 0.00 90 1015.3
20260906104632 62 337 3.5 4.3 0.00 0.00 0.00 90 1015.4
20260906104131 63 331 3.5 4.3 0.00 0.00 0.00 89 1015.5
20260906103629 63 149 0.9 1.7 0.00 0.00 0.00 88 1015.1
20260906103125 63 190 1.7 1.7 0.00 0.00 0.00 88 1015.1
20260906102620 63 119 0.0 0.0 0.00 0.00 0.00 88 1015.2
20260906102115 63 171 0.9 0.9 0.00 0.00 0.00 87 1014.9
20260906101614 63 141 0.0 0.0 0.00 0.00 0.00 87 1014.7
20260906101109 63 141 2.6 2.6 0.00 0.00 0.00 87 1014.9
20260906100605 64 172 2.6 2.6 0.00 0.00 0.00 84 1015.2
20260906100105 64 110 0.0 0.0 0.00 0.00 0.00 83 1015.3
20260906095604 64 91 0.0 0.0 0.00 0.00 0.00 84 1015.3
20260906095100 64 94 0.9 1.7 0.00 0.00 0.00 84 1015.0
20260906094559 64 121 3.5 4.3 0.00 0.00 0.00 83 1015.2
20260906094055 64 153 3.5 4.3 0.00 0.00 0.00 84 1015.2
20260906093550 64 166 2.6 2.6 0.00 0.00 0.00 84 1015.0
20260906093045 64 175 2.6 2.6 0.00 0.00 0.00 81 1014.9
20260906092540 64 116 0.0 0.9 0.00 0.00 0.00 81 1014.7
20260906092035 65 122 2.6 2.6 0.00 0.00 0.00 79 1014.6
20260906091531 65 115 3.5 6.1 0.00 0.00 0.00 79 1014.4
20260906091027 65 69 7.0 9.6 0.00 0.00 0.00 79 1014.2
20260906090522 65 75 7.0 7.8 0.00 0.00 0.00 79 1014.2
20260906090017 64 144 5.2 7.0 0.00 0.00 0.00 80 1014.5
20260906085516 64 76 7.8 8.7 0.00 0.00 0.00 79 1014.2
20260906085015 65 125 5.2 7.0 0.00 0.00 0.00 79 1014.5
20260906084510 64 101 3.5 6.1 0.00 0.00 0.00 81 1014.7
20260906084009 64 66 3.5 5.2 0.00 0.00 0.00 79 1015.1
20260906083505 64 140 5.2 6.1 0.00 0.00 0.00 79 1015.3
20260906083004 65 169 9.6 9.6 0.00 0.00 0.00 81 1015.3
20260906082459 65 62 7.8 7.8 0.00 0.00 0.00 77 1015.0
20260906081955 65 76 8.7 11.3 0.00 0.00 0.00 78 1014.7
20260906081450 65 67 7.0 9.6 0.00 0.00 0.00 78 1015.0
20260906080946 65 76 9.6 12.2 0.00 0.00 0.00 78 1014.9
20260906080442 64 67 6.1 8.7 0.00 0.00 0.00 80 1014.6
20260906075937 64 69 7.0 7.8 0.00 0.00 0.00 81 1014.5
20260906075432 64 76 7.0 9.6 0.00 0.00 0.00 81 1015.0
20260906074927 64 81 5.2 7.8 0.00 0.00 0.00 84 1014.5
20260906074421 63 74 9.6 12.2 0.00 0.00 0.00 85 1015.1
20260906073920 63 90 6.1 7.8 0.00 0.00 0.00 87 1015.0
20260906073415 62 77 5.2 8.7 0.00 0.00 0.00 89 1015.3
20260906072911 62 68 0.0 0.0 0.00 0.00 0.00 90 1015.1
20260906072406 62 68 6.1 8.7 0.00 0.00 0.00 89 1015.1
20260906071902 62 60 7.0 8.7 0.00 0.00 0.00 92 1014.7
20260906071357 61 60 8.7 11.3 0.00 0.00 0.00 99 1014.7
20260906070853 60 65 7.8 11.3 0.00 0.00 0.00 99 1014.6
20260906070349 60 54 7.8 9.6 0.00 0.00 0.00 99 1014.9
20260906065845 60 63 6.1 8.7 0.00 0.00 0.00 99 1015.1
20260906065344 59 59 9.6 12.2 0.00 0.00 0.00 99 1015.3
20260906064840 59 66 8.7 12.2 0.00 0.00 0.00 98 1015.4
20260906064331 59 62 7.0 8.7 0.00 0.00 0.00 98 1015.3
20260906063831 59 57 10.4 13.0 0.00 0.00 0.00 98 1015.3
20260906063326 59 59 12.2 14.8 0.00 0.00 0.00 98 1015.3
20260906062821 60 74 9.6 14.8 0.00 0.00 0.00 98 1015.5
20260906062320 60 73 13.9 19.1 0.00 0.00 0.00 98 1015.8
20260906061816 60 66 14.8 17.4 0.00 0.00 0.00 98 1015.7
20260906061312 61 69 13.9 15.6 0.00 0.00 0.00 98 1015.9
20260906060807 61 70 10.4 17.4 0.07 0.00 0.00 98 1015.4
20260906060305 61 52 16.5 20.0 0.12 0.00 0.00 98 1015.8
20260906055800 61 52 6.1 7.8 0.17 1.62 1.62 98 1015.9
20260906055255 61 43 4.3 7.0 0.26 1.61 1.61 98 1015.5
20260906054750 61 56 10.4 13.9 0.61 1.59 1.59 98 1015.4
20260906054246 61 71 5.2 8.7 1.18 1.57 1.57 98 1015.5
20260906053743 61 52 7.8 11.3 1.09 1.50 1.50 98 1016.6
20260906053238 60 44 0.9 1.7 0.61 1.37 1.37 98 1016.6
20260906052733 60 67 4.3 6.1 0.78 1.32 1.32 98 1016.0
20260906052229 60 84 7.8 9.6 0.54 1.27 1.27 98 1016.1
20260906051726 60 174 0.9 1.7 0.12 1.20 1.20 98 1016.5
20260906051225 61 136 7.8 8.7 0.05 1.18 1.18 98 1016.5
20260906050721 64 138 7.8 9.6 0.05 1.18 1.18 98 1016.8
20260906050216 64 89 6.1 9.6 0.07 1.17 1.17 98 1016.6
20260906045714 64 105 9.6 14.8 0.12 1.17 1.17 98 1017.0
20260906045209 64 122 6.1 7.0 0.05 1.16 1.16 98 1016.8
20260906044705 64 105 4.3 6.1 0.00 1.15 1.15 98 1016.2
20260906044200 64 116 6.1 9.6 0.00 1.15 1.15 98 1016.3
20260906043656 64 58 7.0 7.8 0.00 1.15 1.15 98 1016.5
20260906043152 64 69 5.2 7.0 0.00 1.15 1.15 98 1016.3
20260906042651 64 73 8.7 11.3 0.07 1.15 1.15 98 1016.7
20260906042151 64 73 12.2 14.8 0.19 1.15 1.15 98 1016.7
20260906041647 64 52 10.4 12.2 0.54 1.14 1.14 98 1016.3
20260906041142 64 59 2.6 2.6 0.54 1.12 1.12 98 1016.7
20260906040637 64 208 2.6 2.6 0.12 1.05 1.05 98 1017.7
20260906040133 64 325 7.0 8.7 0.00 1.03 1.03 97 1017.8
20260906035628 63 351 10.4 12.2 0.12 1.03 1.03 97 1016.7
20260906035124 63 33 9.6 12.2 0.47 1.03 1.03 97 1017.0
20260906034623 63 8 7.8 9.6 0.83 1.01 1.01 97 1017.6
20260906034118 63 347 7.8 8.7 1.09 0.96 0.96 97 1018.2
20260906033614 62 336 10.4 12.2 2.17 0.87 0.87 97 1019.4
20260906033109 61 307 13.0 14.8 2.53 0.71 0.71 97 1020.3
20260906032606 61 301 16.5 20.9 2.53 0.47 0.47 96 1019.7
20260906032105 61 321 32.2 35.6 1.49 0.25 0.25 96 1018.9
20260906031601 63 290 49.5 54.7 0.17 0.03 0.03 95 1014.7
20260906031056 62 321 38.2 41.7 0.00 0.00 0.00 90 1015.1
20260906030555 66 308 28.7 33.9 0.00 0.00 0.00 79 1016.1
20260906030056 71 333 17.4 23.5 0.00 0.00 0.00 68 1016.7
20260906025556 71 315 9.6 11.3 0.00 0.00 0.00 68 1016.0
20260906025054 71 28 8.7 9.6 0.00 0.00 0.00 68 1016.0
20260906024550 71 29 12.2 13.9 0.00 0.00 0.00 69 1015.5
20260906024050 70 41 7.8 11.3 0.00 0.00 0.00 73 1014.5
20260906023546 71 43 12.2 19.1 0.00 0.00 0.00 71 1014.7
20260906023046 71 31 12.2 14.8 0.00 0.00 0.00 69 1014.2
20260906022541 75 38 12.2 14.8 0.00 0.00 0.00 63 1014.2
20260906022037 74 39 4.3 5.2 0.00 0.00 0.00 59 1014.0
20260906021532 74 43 6.1 7.8 0.00 0.00 0.00 59 1014.2
20260906021031 75 64 5.2 7.0 0.00 0.00 0.00 58 1014.3
20260906020531 81 66 4.3 8.7 0.00 0.00 0.00 49 1014.2
20260906020031 81 159 8.7 12.2 0.00 0.00 0.00 49 1014.1
20260906015529 81 132 11.3 13.0 0.00 0.00 0.00 48 1013.8
20260906015024 81 133 9.6 12.2 0.00 0.00 0.00 48 1014.0
20260906014519 80 143 8.7 9.6 0.00 0.00 0.00 48 1014.1
20260906014015 80 146 9.6 11.3 0.00 0.00 0.00 49 1013.7
20260906013510 78 136 6.1 8.7 0.00 0.00 0.00 48 1013.6
20260906013006 78 155 9.6 9.6 0.00 0.00 0.00 47 1013.5
20260906012501 79 155 7.0 7.8 0.00 0.00 0.00 46 1013.4
20260906011959 80 149 7.8 7.8 0.00 0.00 0.00 42 1013.2
20260906011456 80 141 7.8 9.6 0.00 0.00 0.00 41 1013.0
20260906010950 79 160 9.6 13.0 0.00 0.00 0.00 42 1012.8
20260906010446 78 157 8.7 11.3 0.00 0.00 0.00 44 1013.0
20260906005943 78 165 8.7 13.0 0.00 0.00 0.00 46 1013.5
20260906005441 78 148 9.6 12.2 0.00 0.00 0.00 48 1013.4
20260906004940 78 142 8.7 9.6 0.00 0.00 0.00 47 1013.5
20260906004434 77 145 9.6 11.3 0.00 0.00 0.00 48 1014.0
20260906003930 77 168 7.8 8.7 0.00 0.00 0.00 49 1014.0
20260906003430 76 138 9.6 12.2 0.00 0.00 0.00 51 1014.2
20260906002926 74 157 9.6 13.0 0.00 0.00 0.00 54 1014.2
20260906002425 73 147 16.5 18.2 0.00 0.00 0.00 59 1014.4
20260906001920 73 136 13.0 15.6 0.00 0.00 0.00 60 1014.9
20260906001416 74 136 18.2 23.5 0.00 0.00 0.00 56 1014.7
20260906000911 77 142 16.5 22.6 0.00 0.00 0.00 53 1014.9
20260906000406 78 155 14.8 18.2 0.00 0.00 0.00 53 1014.6
20260905235901 79 153 20.9 25.2 0.00 0.00 0.00 52 1014.3
20260905235355 81 160 12.2 14.8 0.00 0.00 0.00 50 1014.1
20260905234850 81 161 14.8 17.4 0.00 0.00 0.00 52 1013.8
20260905234346 82 140 13.0 15.6 0.00 0.00 0.00 52 1013.4
20260905233841 90 172 17.4 20.0 0.00 0.00 0.00 42 1013.2
20260905233335 90 98 9.6 12.2 0.00 0.00 0.00 40 1012.9
20260905232835 91 130 6.1 8.7 0.00 0.00 0.00 40 1012.8
20260905232331 91 136 10.4 12.2 0.00 0.00 0.00 39 1012.9
20260905231826 91 120 9.6 13.9 0.00 0.00 0.00 39 1013.2
20260905231321 91 120 8.7 11.3 0.00 0.00 0.00 37 1012.8
20260905230818 91 123 13.0 18.2 0.00 0.00 0.00 38 1012.8
20260905230316 92 124 12.2 14.8 0.00 0.00 0.00 37 1012.7
20260905225815 91 121 10.4 12.2 0.00 0.00 0.00 37 1012.7
20260905225310 90 139 12.2 14.8 0.00 0.00 0.00 37 1012.7
20260905224810 91 129 9.6 13.9 0.00 0.00 0.00 38 1012.8
20260905224306 91 145 7.8 9.6 0.00 0.00 0.00 37 1012.8
20260905223801 92 152 13.0 14.8 0.00 0.00 0.00 36 1012.7
20260905223258 91 136 11.3 15.6 0.00 0.00 0.00 36 1013.0
20260905222753 90 157 7.8 11.3 0.00 0.00 0.00 36 1013.2
20260905222252 91 135 13.9 15.6 0.00 0.00 0.00 37 1013.3
20260905221748 93 106 9.6 12.2 0.00 0.00 0.00 34 1013.2
20260905221245 91 134 11.3 13.0 0.00 0.00 0.00 34 1013.2
20260905220740 92 124 3.5 6.1 0.00 0.00 0.00 35 1013.2
20260905220236 93 151 9.6 12.2 0.00 0.00 0.00 35 1013.2
20260905215736 92 148 6.1 9.6 0.00 0.00 0.00 35 1013.2
20260905215231 92 127 9.6 11.3 0.00 0.00 0.00 36 1013.2
20260905214721 92 135 7.0 7.8 0.00 0.00 0.00 36 1013.3
20260905214217 92 129 9.6 13.0 0.00 0.00 0.00 36 1013.3
20260905213712 92 128 7.8 9.6 0.00 0.00 0.00 36 1013.7
20260905213208 91 132 7.8 12.2 0.00 0.00 0.00 38 1013.6
20260905212703 92 110 8.7 13.0 0.00 0.00 0.00 37 1013.8
20260905212202 92 111 9.6 18.2 0.00 0.00 0.00 38 1014.0
20260905211656 92 132 7.8 7.8 0.00 0.00 0.00 37 1014.1
20260905211152 92 129 11.3 12.2 0.00 0.00 0.00 36 1013.8